Regional Weather Roundup
Issued by NWS

Home | Current Version | Previous Version | Graphics & Text | Print | Product List | Glossary On
Versions: 1 2 3 4 5 6 7 8 9 10 11 12 13 14 15 16 17 18 19 20 21 22 23 24 25 26 27 28 29 30 31 32 33 34 35 36 37 38 39 40 41 42 43 44 45 46 47 48 49 50
992
ASUS45 KCYS 220110
RWRWY

WYOMING REGIONAL WEATHER ROUNDUP
NATIONAL WEATHER SERVICE CHEYENNE WY
600 PM MST TUE FEB 21 2017

NOTE:  "FAIR" INDICATES FEW OR NO CLOUDS BELOW 12,000 FEET
WITH NO SIGNIFICANT WEATHER AND/OR OBSTRUCTIONS TO VISIBILITY.

WYZ001-220200-
YELLOWSTONE NATIONAL PARK

CITY           SKY/WX    TMP DP  RH WIND       PRES   REMARKS
LK YELLOWSTONE   N/A     25  23  92 MISG      29.84F
W YELLOWSTONE  NOT AVBL

$$
WYZ002>013-054>058-071-098>099-220200-
NORTHERN WYOMING

CITY           SKY/WX    TMP DP  RH WIND       PRES   REMARKS
JACKSON        CLOUDY    30  28  93 S23       29.91R WCI  17
CODY           FAIR      41  26  55 SW14G24   29.79F
GREYBULL       FAIR      44  33  65 SW5       29.76F
WORLAND        CLOUDY    45  36  70 NW7       29.78R
SHERIDAN       FAIR      50  27  40 W28G35    29.74R
BUFFALO        MOCLDY    49  30  48 SW10      29.76R
GILLETTE       CLOUDY    52  33  48 W12       29.74R
HULETT         RAIN      54  28  37 W23G31    29.74R
NEWCASTLE      FAIR      55  23  28 W16G26    29.76R

$$
WYZ014>020-022>026-101>103-220200-
CENTRAL WYOMING

CITY           SKY/WX    TMP DP  RH WIND       PRES   REMARKS
BIG PINEY      MOCLDY    29  25  85 N18       29.93F WCI  16
PINEDALE       SNOW      30  28  93 NW25G36   29.95R VSB 1/4 WCI  16
DUBOIS         LGT SNOW  30  25  80 W26       29.87R WCI  16
LANDER         LGT SNOW  33  32  96 NW10      29.82R FOG     WCI  25
RIVERTON       RAIN      36  33  89 NW21G33   29.84S WCI  25
CASPER         FAIR      52  30  43 SW21      29.78F
DOUGLAS        FAIR      54  30  40 SW20      29.81F

$$
WYZ021-027>030-104>119-220200-
SOUTHERN WYOMING

CITY           SKY/WX    TMP DP  RH WIND       PRES   REMARKS
EVANSTON       LGT RAIN  36  31  82 W24G35    29.93R WCI  24
KEMMERER       LGT SNOW  32  30  93 NW26      29.93R WCI  18
FORT BRIDGER   MOCLDY    42  31  62 SW28G48   29.92S
ROCK SPRINGS   FAIR      45  27  49 SW30G38   29.86F
DIXON            N/A     46  31  56 SW14G22   30.00F
RAWLINS        FAIR      45  31  58 SW22G36   29.90S
SARATOGA       FAIR      45  27  49 SW23G41   29.94F
LARAMIE        FAIR      42  20  41 SW15      29.95F
CHEYENNE       FAIR      53  18  25 W10       29.95F
TORRINGTON     FAIR      61  20  20 SW18G26   29.82S
PINE BLUFFS    FAIR      52  18  25 SW13G18   29.91F

$$




USA.gov is the U.S. government's official web portal to all federal, state and local government web resources and services.